This is the latest recevied weather packets stored in our database for station/object HG8LXL-2. If no packets are shown the sender has not sent any weather packets the latest 10 day(s).
| Time | Temp. | Humidity | Pressure | Rain* | Wind** | Luminosity | Snow |
|---|---|---|---|---|---|---|---|
| 1777777200 | 12.22° C | 46% | 1018.1 hPa | - | - | - | - |
| 1777776901 | 12.22° C | 45% | 1018.1 hPa | - | - | - | - |
| 1777776601 | 13.33° C | 43% | 1018 hPa | - | - | - | - |
| 1777776301 | 12.78° C | 44% | 1017.9 hPa | - | - | - | - |
| 1777776001 | 13.33° C | 43% | 1018 hPa | - | - | - | - |
| 1777775701 | 12.78° C | 43% | 1017.9 hPa | - | - | - | - |
| 1777775401 | 13.33° C | 42% | 1018 hPa | - | - | - | - |
| 1777775100 | 12.78° C | 44% | 1017.9 hPa | - | - | - | - |
| 1777774801 | 13.33° C | 39% | 1017.6 hPa | - | - | - | - |
| 1777774501 | 12.78° C | 42% | 1017.6 hPa | - | - | - | - |
| 1777774201 | 12.78° C | 42% | 1017.5 hPa | - | - | - | - |
| 1777773901 | 12.78° C | 43% | 1017.7 hPa | - | - | - | - |
| 1777773600 | 12.78° C | 42% | 1017.6 hPa | - | - | - | - |
| 1777773301 | 12.78° C | 43% | 1017.5 hPa | - | - | - | - |
| 1777773001 | 12.78° C | 43% | 1017.5 hPa | - | - | - | - |
| 1777772701 | 12.78° C | 42% | 1017.6 hPa | - | - | - | - |
| 1777772401 | 12.78° C | 43% | 1017.6 hPa | - | - | - | - |
| 1777772100 | 12.78° C | 43% | 1017.7 hPa | - | - | - | - |
| 1777771800 | 13.33° C | 41% | 1017.6 hPa | - | - | - | - |
| 1777771500 | 13.33° C | 40% | 1017.6 hPa | - | - | - | - |
| 1777771200 | 14.44° C | 39% | 1017.6 hPa | - | - | - | - |
| 1777770901 | 14.44° C | 39% | 1017.6 hPa | - | - | - | - |
| 1777770600 | 13.89° C | 40% | 1017.6 hPa | - | - | - | - |
| 1777770300 | 13.33° C | 41% | 1017.6 hPa | - | - | - | - |
| 1777770000 | 12.78° C | 44% | 1017.7 hPa | - | - | - | - |
* Rain since midnight (hover to see other rain measurements)
** Current wind speed in m/s (hover to see current wind gust speed)